ZHONGXING-6B

Last updated on Mon Oct 14 2024 00:02:38 GMT+0000 (Coordinated Universal Time)

1 31800U 07031A 24287.53329986 -.00000362 00000+0 00000+0 0 9991 2 31800 0.8135 89.3093 0004419 126.2000 114.3887 1.00268941 63330
UTC large
Height (km)
Speed (km/s)
/
Latitude / Longitude
Inclination (degrees)
Orbital Period (minutes)
Azimuth
Elevation
Range (km)
Doppler Factor

Next 0 passes for location: London (51.5072 / 0.1276)

Sorry there are no passes over London.